Location: Caltech
(34.1382°N, 118.1253°W)
Time: 06:34:16
(UTC-07:00)

ADEOS II - Visible Passes

Search period start: 21 October 2014 00:00
Search period end: 31 October 2014 00:00
Orbit: 802 x 802 km, 98.3° (Epoch: 19 October)

Date Brightness Start Highest point End Pass type
(mag) Time Alt. Az. Time Alt. Az. Time Alt. Az.
21 Oct 5.1 05:46:15 10° NE 05:49:52 19° E 05:53:28 10° SE visible
21 Oct 3.6 18:40:39 10° S 18:45:36 42° W 18:50:34 10° NNW visible
23 Oct 2.9 06:32:40 10° NNE 06:37:51 57° E 06:43:00 10° S visible
23 Oct 5.4 19:31:06 10° WSW 19:33:40 14° W 19:36:14 10° WNW visible
24 Oct 4.2 06:07:07 10° NE 06:11:46 31° E 06:16:22 10° SSE visible
24 Oct 4.6 19:03:10 10° SSW 19:07:26 25° W 19:11:44 10° NW visible
25 Oct 5.2 05:42:12 10° NE 05:45:34 17° E 05:48:55 10° SE visible
25 Oct 3.4 18:36:18 10° S 18:41:19 46° W 18:46:21 10° NNW visible
27 Oct 3.1 06:28:26 10° NNE 06:33:34 52° E 06:38:40 10° S visible
27 Oct 5.3 19:26:25 10° SW 19:29:20 15° W 19:32:16 10° WNW visible
28 Oct 4.3 06:02:57 10° NE 06:07:27 29° E 06:11:56 10° SSE visible
28 Oct 4.4 18:58:43 10° SSW 19:03:08 27° W 19:07:35 10° NW visible
29 Oct 5.3 05:38:10 10° ENE 05:41:15 16° E 05:44:19 10° SE visible
29 Oct 3.2 18:31:56 10° S 18:37:01 50° W 18:42:07 10° NNW visible
